Temp
62 61 60 60 59 59 58 57 56 57 57 56 58 57 56 57 56 56 56 56 57 57 56 56 57 57 57 56 56 57 56 55 55 55 56 56 55 56 56 56 57 58
60 61 61 59 58 59 58 59 58 58 57 57 57 56 55 56 55 57 57 57 57 55 55 55 56 56 56 56 55 56 55 56 56 57 55 55 54 55 55 55 55 56
60 60 60 60 59 59 58 58 59 58 57 56 56 56 56 55 55 55 55 56 56 55 54 54 55 55 55 55 55 56 55 55 55 54 55 54 54 54 53 54 55 56
61 61 61 61 60 59 58 57 56 57 56 56 56 56 56 57 55 55 56 58 55 54 53 54 54 54 54 54 55 54 53 53 53 54 55 55 54 54 54 55 55 56
60 60 60 60 60 59 58 57 57 56 57 56 55 56 57 55 54 55 54 53 54 54 54 53 53 53 54 54 55 55 55 54 53 53 55 54 53 55 54 55 55 55
59 60 60 60 59 58 58 57 58 57 56 56 56 56 55 55 55 55 54 54 53 54 53 53 53 52 53 54 53 53 53 54 52 53 55 54 54 54 55 54 55 55
59 58 58 59 58 58 57 57 58 58 57 57 56 55 55 55 55 54 54 55 54 55 55 54 53 53 52 53 54 53 52 52 52 54 55 54 55 55 54 55 55 55
57 58 58 58 58 57 58 58 58 58 57 56 56 55 55 55 54 54 54 55 55 55 54 53 53 53 52 53 54 54 53 53 52 53 54 53 54 55 54 54 54 55
59 59 58 57 57 56 57 58 58 58 58 56 56 55 54 55 54 54 54 55 55 54 54 54 54 54 53 53 53 54 55 53 52 52 55 55 55 55 56 54 55 55
58 57 58 58 57 57 58 58 58 58 58 56 56 56 56 54 54 54 54 54 55 54 54 54 54 54 54 54 55 55 55 54 53 52 53 54 55 55 55 55 56 56
57 56 57 57 57 57 58 58 58 58 58 57 56 57 55 54 55 54 53 54 55 55 54 54 54 54 54 53 53 53 54 54 54 53 53 52 53 53 56 54 55 57
56 57 57 56 56 57 57 57 57 58 57 56 58 57 54 54 54 54 55 55 54 54 55 54 53 54 55 54 54 53 53 53 53 53 53 53 53 52 55 52 54 54
56 57 56 56 55 55 56 57 58 58 57 57 57 57 57 55 54 54 55 54 54 54 54 54 54 53 54 53 53 53 54 54 53 53 53 53 53 54 54 53 53 54
56 56 57 56 56 56 56 56 57 57 56 55 56 56 56 56 55 55 54 54 54 55 54 54 54 54 53 54 54 53 54 53 54 54 55 54 54 54 54 54 54 54
56 57 57 57 57 56 56 57 56 56 56 56 56 56 56 56 55 55 55 55 54 54 55 55 54 55 54 54 55 54 53 54 54 55 54 55 55 55 55 54 54 54
55 56 56 56 56 56 57 57 55 55 55 56 56 55 55 55 55 55 55 55 56 55 55 55 55 55 56 53 53 56 54 55 55 55 54 55 56 55 55 55 55 54
55 55 55 55 55 55 55 56 56 55 54 54 53 53 53 54 55 54 54 55 55 56 55 55 56 57 52 48 47 50 56 55 56 55 55 55 55 56 57 57 56 55
55 55 55 54 55 55 55 55 55 55 54 54 53 53 53 52 52 51 52 53 54 54 54 55 55 54 49 47 46 45 50 57 56 56 55 55 55 55 56 56 56 56
54 54 54 53 54 54 54 54 55 54 53 53 53 52 52 52 51 52 51 50 52 54 53 52 53 48 45 46 46 45 44 50 57 56 56 55 55 56 56 55 55 55
51 51 50 50 50 50 51 51 51 51 51 50 51 52 52 52 52 51 50 51 51 52 51 51 52 46 41 40 41 41 41 44 55 55 56 56 56 56 55 55 55 55
48 50 50 49 49 48 48 48 48 48 49 49 49 49 50 49 49 49 49 49 49 50 50 51 51 42 41 40 39 39 39 41 51 52 54 54 55 55 55 55 55 55
47 47 48 48 49 48 47 47 47 46 46 47 47 47 47 47 47 47 48 49 49 49 49 50 51 43 42 42 41 40 40 47 49 51 52 53 53 54 54 55 55 54
48 47 46 46 47 46 46 45 45 45 45 46 46 46 45 45 45 46 46 47 48 48 48 49 49 45 41 41 41 41 43 48 49 50 51 52 53 54 54 54 54 54
47 47 46 46 46 45 44 44 44 44 44 45 44 45 45 45 45 45 45 45 46 46 48 46 47 45 41 40 41 41 43 48 50 50 51 51 52 53 52 52 53 52
46 46 45 44 44 44 45 44 44 44 45 45 44 43 43 44 45 44 44 44 44 45 48 46 45 45 42 40 40 40 44 48 48 50 50 51 51 52 52 51 51 51
46 45 45 45 44 44 44 44 45 45 44 44 44 44 44 43 44 44 43 43 44 44 44 45 45 45 44 39 40 40 41 46 48 49 50 51 51 51 51 52 51 51
MSLP
1016.93 1017.09 1017.33 1017.65 1017.85 1017.97 1018.21 1018.45 1018.69 1018.77 1019.01 1019.17 1019.13 1019.37 1019.53 1019.73 1019.89 1019.89 1019.93 1020.05 1020.09 1020.17 1020.33 1020.37 1020.45 1020.53 1020.69 1020.81 1020.89 1020.93 1021.05 1021.09 1021.21 1021.33 1021.25 1021.25 1021.33 1021.45 1021.53 1021.61 1021.73 1021.69
1017.01 1017.09 1017.25 1017.53 1017.81 1017.97 1018.09 1018.17 1018.45 1018.65 1018.97 1019.21 1019.29 1019.45 1019.73 1019.85 1019.93 1019.89 1019.93 1020.05 1020.21 1020.33 1020.45 1020.53 1020.53 1020.61 1020.73 1020.85 1020.97 1021.01 1021.17 1021.29 1021.29 1021.49 1021.41 1021.37 1021.49 1021.53 1021.61 1021.73 1021.69 1021.89
1017.01 1017.09 1017.13 1017.29 1017.53 1017.85 1018.05 1018.33 1018.45 1018.69 1018.93 1019.25 1019.49 1019.61 1019.69 1019.89 1019.89 1020.01 1020.01 1020.05 1020.25 1020.45 1020.57 1020.61 1020.61 1020.73 1020.81 1020.97 1021.09 1021.21 1021.33 1021.41 1021.45 1021.57 1021.61 1021.65 1021.77 1021.69 1021.85 1021.89 1021.97 1022.01
1016.85 1016.73 1016.85 1017.13 1017.41 1017.77 1018.13 1018.41 1018.73 1018.89 1019.17 1019.33 1019.53 1019.69 1019.73 1019.85 1019.97 1020.01 1020.13 1020.21 1020.29 1020.49 1020.65 1020.69 1020.69 1020.81 1020.89 1021.01 1021.13 1021.37 1021.53 1021.65 1021.77 1021.77 1021.65 1021.73 1021.85 1021.85 1021.85 1021.89 1021.97 1022.13
1016.77 1016.89 1017.05 1017.25 1017.53 1017.85 1018.21 1018.53 1018.77 1018.97 1019.13 1019.33 1019.57 1019.65 1019.69 1019.81 1019.97 1020.13 1020.25 1020.41 1020.45 1020.53 1020.65 1020.73 1020.81 1020.89 1020.97 1021.09 1021.25 1021.41 1021.61 1021.69 1021.85 1021.85 1021.69 1021.73 1021.93 1021.89 1021.97 1021.89 1021.97 1022.17
1016.97 1016.97 1017.09 1017.37 1017.65 1017.93 1018.37 1018.61 1018.77 1018.97 1019.21 1019.37 1019.45 1019.53 1019.61 1019.81 1019.97 1020.13 1020.29 1020.41 1020.53 1020.57 1020.69 1020.85 1020.89 1021.01 1021.09 1021.21 1021.37 1021.61 1021.69 1021.73 1021.89 1021.81 1021.77 1021.89 1021.97 1022.05 1022.05 1022.01 1022.05 1022.21
1017.05 1017.25 1017.41 1017.57 1017.77 1018.05 1018.37 1018.65 1018.81 1018.93 1019.09 1019.21 1019.53 1019.53 1019.57 1019.77 1019.97 1020.21 1020.37 1020.41 1020.45 1020.53 1020.61 1020.81 1020.93 1021.05 1021.21 1021.29 1021.45 1021.65 1021.81 1021.85 1021.93 1021.85 1021.81 1022.05 1021.97 1021.97 1022.13 1022.09 1022.13 1022.33
1017.25 1017.41 1017.49 1017.61 1017.81 1018.05 1018.25 1018.49 1018.65 1018.89 1019.17 1019.33 1019.45 1019.61 1019.49 1019.69 1019.97 1020.29 1020.45 1020.49 1020.45 1020.57 1020.69 1020.85 1020.97 1021.09 1021.25 1021.33 1021.45 1021.65 1021.85 1021.97 1021.97 1021.93 1021.97 1022.09 1022.09 1022.09 1022.17 1022.17 1022.13 1022.17
1017.13 1017.33 1017.49 1017.69 1017.85 1018.01 1018.17 1018.33 1018.53 1018.89 1019.17 1019.33 1019.49 1019.61 1019.57 1019.61 1019.97 1020.29 1020.53 1020.57 1020.61 1020.73 1020.85 1020.97 1021.05 1021.13 1021.25 1021.29 1021.45 1021.53 1021.73 1021.97 1022.05 1022.01 1021.97 1022.05 1022.13 1022.21 1022.17 1022.21 1022.13 1022.25
1017.09 1017.33 1017.53 1017.73 1017.81 1018.01 1018.21 1018.41 1018.61 1018.81 1019.13 1019.45 1019.49 1019.57 1019.45 1019.77 1020.13 1020.37 1020.57 1020.65 1020.73 1020.89 1021.01 1021.05 1021.17 1021.25 1021.29 1021.29 1021.33 1021.45 1021.61 1021.85 1022.01 1022.09 1022.13 1022.09 1022.09 1022.17 1022.21 1022.17 1022.17 1022.29
1017.17 1017.41 1017.65 1017.81 1017.93 1018.09 1018.29 1018.41 1018.57 1018.81 1019.13 1019.41 1019.49 1019.53 1019.49 1019.73 1020.17 1020.53 1020.61 1020.69 1020.77 1020.89 1021.01 1021.09 1021.17 1021.25 1021.29 1021.37 1021.45 1021.49 1021.57 1021.73 1021.93 1022.05 1022.21 1022.29 1022.29 1022.33 1022.37 1022.29 1022.29 1022.29
1017.17 1017.33 1017.49 1017.73 1017.97 1018.09 1018.25 1018.41 1018.61 1018.81 1019.13 1019.45 1019.41 1019.41 1019.61 1019.81 1020.13 1020.45 1020.65 1020.65 1020.77 1020.85 1020.93 1021.01 1021.17 1021.21 1021.17 1021.25 1021.37 1021.53 1021.69 1021.81 1021.93 1022.05 1022.21 1022.37 1022.45 1022.49 1022.49 1022.53 1022.41 1022.45
1017.09 1017.17 1017.37 1017.69 1017.97 1018.13 1018.33 1018.57 1018.81 1019.13 1019.45 1019.61 1019.53 1019.45 1019.65 1019.93 1020.29 1020.49 1020.73 1020.81 1020.81 1020.89 1020.93 1021.01 1021.09 1021.17 1021.21 1021.25 1021.37 1021.49 1021.61 1021.77 1021.93 1022.09 1022.17 1022.25 1022.49 1022.57 1022.61 1022.65 1022.61 1022.57
1017.13 1017.33 1017.49 1017.65 1017.85 1018.17 1018.41 1018.69 1019.05 1019.37 1019.61 1019.65 1019.65 1019.65 1019.77 1020.01 1020.17 1020.41 1020.57 1020.77 1020.73 1020.69 1020.81 1020.97 1021.01 1021.13 1021.25 1021.33 1021.45 1021.61 1021.65 1021.77 1021.89 1021.93 1022.01 1022.17 1022.29 1022.45 1022.49 1022.57 1022.69 1022.69
1017.61 1017.73 1017.77 1017.77 1017.97 1018.29 1018.65 1018.81 1019.21 1019.57 1019.73 1019.81 1019.85 1019.93 1019.97 1020.09 1020.25 1020.41 1020.57 1020.73 1020.89 1020.85 1020.89 1021.01 1021.01 1021.05 1021.17 1021.25 1021.33 1021.53 1021.73 1021.73 1021.81 1021.89 1021.97 1022.05 1022.13 1022.17 1022.25 1022.25 1022.25 1022.33
1017.85 1018.01 1018.01 1018.05 1018.17 1018.41 1018.65 1018.89 1019.33 1019.53 1019.77 1019.77 1019.65 1019.85 1020.21 1020.33 1020.37 1020.49 1020.61 1020.69 1020.77 1020.93 1020.97 1020.97 1020.97 1021.05 1021.09 1021.17 1021.29 1021.33 1021.49 1021.73 1021.89 1021.93 1021.93 1021.93 1021.97 1022.05 1022.13 1022.21 1022.21 1022.25
1018.09 1018.37 1018.53 1018.65 1018.73 1019.09 1019.17 1019.25 1019.41 1019.61 1019.81 1019.89 1020.13 1020.45 1020.45 1020.41 1020.53 1020.57 1020.61 1020.73 1020.77 1020.85 1020.89 1020.93 1020.93 1020.89 1020.93 1021.09 1021.21 1021.41 1021.49 1021.61 1021.65 1021.69 1021.85 1021.93 1022.01 1022.05 1022.01 1022.01 1022.13 1022.29
1018.49 1018.69 1018.69 1018.89 1018.93 1019.17 1019.45 1019.49 1019.45 1019.49 1019.77 1020.17 1020.45 1020.53 1020.45 1020.57 1020.57 1020.65 1020.77 1020.81 1020.89 1021.01 1021.09 1021.09 1021.05 1021.05 1021.13 1021.17 1021.29 1021.41 1021.45 1021.49 1021.65 1021.69 1021.77 1021.85 1021.89 1021.93 1021.93 1021.97 1021.93 1022.01
1019.17 1019.21 1019.29 1019.45 1019.65 1019.73 1019.69 1019.57 1019.61 1019.93 1020.33 1020.53 1020.57 1020.69 1020.57 1020.57 1020.77 1020.73 1020.81 1020.97 1020.97 1020.93 1020.97 1021.05 1021.09 1021.17 1021.21 1021.25 1021.25 1021.37 1021.53 1021.61 1021.57 1021.69 1021.81 1021.81 1021.89 1021.89 1021.89 1021.93 1021.97 1022.05
1020.01 1020.01 1020.21 1020.45 1020.49 1020.41 1020.37 1020.37 1020.37 1020.65 1020.89 1020.89 1020.81 1020.81 1020.85 1020.93 1020.97 1020.93 1021.05 1021.13 1021.25 1021.21 1021.13 1021.17 1021.21 1021.37 1021.37 1021.41 1021.61 1021.97 1022.05 1021.85 1021.53 1021.53 1021.61 1021.69 1021.77 1021.85 1021.93 1021.97 1022.01 1022.09
1020.77 1020.73 1020.85 1021.05 1021.17 1021.17 1021.13 1021.45 1021.53 1021.37 1021.29 1021.37 1021.41 1021.57 1021.57 1021.57 1021.57 1021.41 1021.45 1021.45 1021.45 1021.41 1021.17 1021.13 1021.49 1021.77 1021.61 1021.65 1021.81 1021.85 1022.01 1022.25 1022.21 1021.97 1021.77 1021.65 1021.69 1021.73 1021.81 1021.89 1021.97 1022.13
1021.45 1021.49 1021.57 1021.73 1021.81 1021.77 1021.81 1021.93 1022.09 1022.17 1022.09 1022.09 1022.05 1022.09 1022.05 1022.05 1022.05 1022.09 1021.97 1021.89 1021.97 1021.89 1021.57 1021.49 1021.77 1021.85 1021.77 1021.85 1022.05 1022.05 1022.09 1022.05 1022.17 1022.13 1022.09 1022.09 1022.01 1021.97 1021.97 1022.01 1022.09 1022.13
1021.97 1021.85 1022.25 1022.41 1022.41 1022.33 1022.49 1022.61 1022.53 1022.57 1022.65 1022.61 1022.49 1022.65 1022.69 1022.61 1022.69 1022.69 1022.65 1022.45 1022.33 1022.33 1022.25 1022.29 1022.25 1022.29 1022.13 1022.05 1022.09 1022.21 1022.13 1022.05 1022.13 1022.13 1022.05 1021.93 1021.77 1021.77 1021.81 1021.89 1021.97 1022.05
1022.69 1022.61 1022.73 1022.93 1022.93 1023.05 1023.13 1023.13 1023.01 1022.97 1023.01 1023.09 1023.01 1023.09 1023.09 1023.25 1023.17 1022.93 1022.89 1022.85 1022.77 1022.77 1022.81 1022.77 1022.77 1022.69 1022.65 1022.53 1022.41 1022.33 1022.33 1022.25 1022.25 1022.17 1022.05 1022.01 1021.85 1021.81 1021.85 1021.89 1021.85 1021.85
1023.21 1023.17 1023.29 1023.45 1023.57 1023.69 1023.65 1023.57 1023.57 1023.57 1023.57 1023.53 1023.53 1023.53 1023.61 1023.49 1023.41 1023.29 1023.17 1023.17 1023.21 1023.21 1023.09 1023.01 1023.01 1022.89 1022.89 1022.93 1022.77 1022.65 1022.57 1022.49 1022.45 1022.33 1022.13 1021.89 1021.85 1021.77 1021.85 1022.01 1021.93 1021.93
1023.57 1023.61 1023.61 1023.65 1023.77 1023.81 1023.81 1023.85 1023.85 1023.81 1023.81 1023.85 1023.93 1023.93 1023.97 1023.93 1023.85 1023.69 1023.53 1023.57 1023.61 1023.53 1023.49 1023.37 1023.25 1023.17 1023.13 1023.13 1023.09 1022.93 1022.89 1022.85 1022.73 1022.49 1022.17 1021.97 1022.01 1022.09 1021.97 1021.81 1021.85 1021.77
Wind_Speed
8 7 9 8 8 8 8 7 5 7 5 5 6 5 5 4 3 4 5 5 4 5 4 5 5 5 5 5 4 5 4 4 3 2 2 3 4 5 5 6 5 6
6 7 7 7 6 5 6 6 7 6 6 5 4 5 3 3 3 5 6 5 5 5 4 4 4 5 5 5 5 5 4 4 4 3 3 4 3 4 4 5 5 5
6 7 9 9 8 7 6 4 5 5 6 5 3 3 4 2 4 3 4 6 6 5 4 3 5 5 6 6 5 5 5 4 4 4 5 5 4 4 4 4 4 5
6 8 8 7 7 8 6 6 3 4 4 5 4 3 3 3 3 4 4 4 6 5 4 3 4 5 6 6 6 6 5 5 4 3 5 5 5 4 4 4 5 6
6 5 4 6 5 6 6 6 5 4 4 4 5 4 5 4 5 4 4 4 4 5 4 4 4 5 5 6 5 6 5 5 4 4 5 6 4 4 3 4 6 7
3 5 6 7 7 8 6 6 6 5 5 4 5 5 5 5 5 5 4 5 4 5 5 4 5 4 5 6 6 5 5 5 4 4 6 5 4 5 4 5 6 7
6 5 5 5 6 6 7 6 5 5 5 5 4 4 6 5 5 5 4 5 5 4 5 5 5 4 4 5 6 5 5 5 4 5 6 4 4 5 5 5 6 7
6 5 6 6 7 7 7 7 6 5 4 4 4 4 5 6 5 4 3 4 4 5 5 5 5 5 4 5 6 5 4 3 4 5 5 4 4 5 5 4 5 6
7 7 6 6 7 7 7 7 6 5 4 5 5 5 4 6 6 4 4 3 3 4 4 4 5 5 4 5 5 5 5 4 4 4 4 4 4 4 4 3 6 6
7 6 7 7 8 7 7 5 5 5 5 4 5 5 6 5 4 4 4 3 3 3 4 4 4 4 4 4 5 5 5 5 4 3 4 4 5 4 4 4 5 5
7 6 6 5 5 5 6 6 6 5 4 5 5 5 5 6 4 2 3 4 5 5 5 4 5 5 5 4 3 3 4 5 5 4 4 4 3 3 2 4 3 4
7 7 7 6 5 5 5 5 5 5 4 3 3 6 4 5 5 3 3 4 3 5 5 5 5 5 5 5 5 4 3 3 3 3 4 4 3 3 3 3 4 5
6 6 7 6 6 6 6 5 4 2 1 0 1 4 5 5 3 2 1 2 3 3 3 4 4 4 3 3 3 4 4 4 3 3 4 4 5 5 4 4 3 4
5 6 7 7 7 7 7 7 7 5 4 2 2 3 4 5 5 4 3 2 3 4 4 3 4 3 2 2 3 3 3 4 4 5 4 4 4 5 5 6 6 6
4 3 4 7 7 7 7 7 6 5 3 3 2 1 1 3 3 3 3 2 1 1 1 1 3 3 3 3 4 3 3 4 5 4 4 4 4 3 3 4 4 5
6 4 4 4 6 5 6 5 3 2 1 2 2 2 1 0 2 2 3 3 3 2 1 1 3 3 4 6 5 4 5 3 2 3 4 4 3 3 3 4 4 4
7 6 6 6 7 5 4 5 4 4 4 4 5 3 2 1 1 2 3 3 3 3 3 4 4 4 6 7 8 6 4 4 5 5 4 3 4 4 6 6 5 4
7 6 7 6 6 5 5 6 6 6 6 4 2 2 4 4 3 1 1 0 1 2 2 3 4 4 5 5 6 7 7 5 4 4 5 5 5 5 6 6 6 5
8 8 8 7 6 6 6 7 8 8 6 5 5 3 5 6 4 4 4 3 2 1 1 1 2 4 6 6 6 5 6 5 4 4 5 5 5 6 6 6 6 5
9 10 10 9 8 8 8 8 8 7 5 4 4 5 6 5 4 5 4 5 4 4 4 4 4 6 7 7 8 8 5 3 5 5 5 5 6 6 6 6 6 6
11 10 11 9 9 9 10 10 8 7 8 7 6 6 7 6 6 6 6 5 5 5 5 5 4 7 6 6 6 5 5 3 4 4 4 5 6 6 6 6 6 5
11 12 11 10 9 10 11 10 9 8 8 7 7 7 7 6 7 7 7 7 6 6 6 7 7 11 11 9 6 5 3 1 1 2 4 5 6 5 5 4 4 4
9 11 11 10 9 11 10 9 9 9 8 6 8 7 7 8 7 7 6 7 8 8 8 7 8 13 15 13 10 5 2 2 2 2 3 5 6 6 5 5 5 5
10 10 10 9 9 9 9 8 8 8 8 7 8 7 8 7 5 6 7 8 8 8 8 7 7 10 15 15 12 8 3 3 3 3 4 5 6 6 5 5 6 8
8 9 9 10 9 8 7 8 8 7 5 5 6 6 7 6 7 7 6 7 7 7 9 8 7 8 13 14 14 9 4 3 3 3 4 6 5 7 6 5 6 6
8 8 8 8 8 7 7 6 5 6 7 6 5 5 5 6 5 5 6 6 6 6 6 7 7 8 10 14 13 13 5 2 2 3 4 6 5 4 6 6 6 7
Wind_Direction
152 151 147 149 155 155 156 155 163 150 157 156 154 176 168 167 156 136 132 120 122 115 117 118 118 104 94 86 87 87 73 77 58 38 74 88 94 127 138 143 152 155
154 145 138 136 138 145 151 153 155 155 156 164 168 154 162 132 147 143 136 124 110 108 109 112 107 109 102 93 91 94 84 76 70 32 64 70 54 93 114 132 139 137
149 146 148 152 154 156 153 149 147 148 145 150 141 145 135 121 120 113 126 129 120 108 92 98 99 92 92 90 88 84 90 83 71 49 75 62 41 63 65 95 94 104
168 162 156 148 146 147 140 130 108 102 103 127 149 137 119 106 102 109 107 109 116 103 95 82 97 86 85 89 92 83 85 80 66 67 85 63 46 63 49 76 93 85
162 142 132 139 140 133 132 133 139 139 145 142 126 130 120 115 104 101 103 92 101 108 95 93 81 84 88 80 82 87 66 66 39 50 74 67 27 49 25 76 87 86
144 149 151 148 146 140 137 143 153 147 141 142 157 139 129 124 118 122 123 116 109 115 105 89 85 72 85 93 82 77 81 67 35 66 72 67 52 37 47 65 86 87
151 139 140 142 138 129 132 147 153 155 157 152 139 143 134 125 123 129 135 135 134 133 127 119 110 92 80 95 90 84 66 83 59 67 78 53 69 49 37 70 85 98
128 132 149 148 138 136 144 152 159 152 145 140 153 161 138 129 123 132 141 146 140 138 125 122 119 113 108 103 107 99 83 68 83 86 84 62 71 67 41 44 71 84
141 151 154 150 141 147 154 160 155 136 143 157 158 160 133 127 134 137 155 153 139 132 123 120 125 122 124 116 123 125 119 93 96 116 124 110 94 104 85 72 73 76
145 147 148 153 153 158 160 152 141 149 153 165 164 159 143 117 106 135 146 148 137 124 129 132 129 132 132 139 149 144 136 136 130 119 127 139 147 160 141 96 110 92
139 138 138 137 139 141 146 142 145 148 156 170 158 150 129 117 111 115 146 145 153 159 151 157 163 155 143 144 153 152 147 147 150 148 150 157 166 173 147 133 117 119
142 139 135 132 130 125 132 131 133 151 161 172 165 137 115 109 130 143 177 169 167 171 170 164 165 168 164 168 164 152 132 128 136 149 158 154 166 211 160 162 150 154
145 137 130 124 120 111 96 87 83 70 46 81 108 124 125 122 112 151 214 182 165 154 158 162 163 160 159 152 150 149 148 148 155 164 172 175 171 178 184 168 163 149
131 135 130 122 101 82 78 74 63 55 46 66 84 103 122 135 152 180 215 186 186 182 179 159 148 154 159 156 139 146 153 167 181 180 178 182 188 190 184 175 176 181
89 80 84 91 90 95 84 70 67 64 35 14 56 49 107 147 154 159 187 238 254 208 167 126 152 173 177 173 170 169 157 178 188 186 178 195 209 218 217 198 202 194
67 62 67 66 77 67 90 96 87 89 78 32 19 9 303 139 145 163 193 215 227 244 205 197 217 207 196 187 180 181 182 179 177 201 202 207 211 238 273 267 246 238
77 71 56 60 69 68 84 113 114 98 72 48 36 359 353 39 130 193 222 234 230 218 221 232 244 241 224 200 196 188 179 186 193 212 199 214 224 229 241 246 249 233
81 78 79 73 79 81 80 95 94 89 82 87 89 47 31 42 58 63 69 359 292 294 279 277 279 299 303 263 233 212 204 200 199 199 202 209 214 222 240 248 255 254
61 74 70 66 61 70 74 78 83 76 69 58 47 46 68 65 51 56 35 31 75 105 303 300 286 331 326 302 264 234 229 236 221 211 207 221 219 226 232 241 247 258
54 64 61 52 45 49 52 54 62 64 62 56 53 41 51 50 47 57 50 48 40 40 9 6 12 17 14 3 360 356 330 258 239 219 224 228 228 227 231 236 236 235
54 55 61 53 51 56 64 53 39 44 45 34 47 43 38 33 23 24 24 25 19 13 20 16 31 23 23 16 36 52 43 360 316 312 273 250 243 233 230 233 233 227
61 62 56 53 48 53 52 53 48 38 37 24 43 43 40 39 31 33 27 28 24 22 27 20 6 9 10 13 34 43 47 11 334 306 303 306 299 287 279 275 274 251
50 65 63 55 55 55 49 44 45 37 32 22 44 39 41 38 37 37 29 35 34 31 29 22 20 11 9 3 1 17 34 346 321 299 281 273 267 262 259 260 252 237
61 61 65 58 53 53 53 44 41 40 37 24 45 37 39 27 20 39 38 37 38 34 29 35 22 14 17 9 0 352 360 337 335 317 296 280 280 276 261 255 250 244
64 70 73 71 67 59 55 54 43 40 29 30 36 39 39 24 27 28 29 34 33 31 27 34 21 13 19 18 15 1 350 338 327 307 291 281 283 293 300 279 280 264
55 58 62 68 70 68 58 55 55 54 41 42 36 35 37 32 25 28 30 25 17 24 24 23 21 15 15 16 15 13 11 312 316 306 281 288 301 288 296 285 263 268